Lapse_Rate
5.8 5.4 5.3 5.4 5.2 5.2 5.5 5.0 5.4 5.8 5.7 5.9 5.8 6.0 5.9 6.0 5.7 5.3 5.2 5.3 5.2 5.2
5.5 5.4 5.4 4.9 5.3 5.1 5.2 5.4 5.8 5.7 5.5 5.9 5.8 5.6 5.5 5.5 5.2 5.0 4.9 5.0 5.2 5.2
5.9 5.6 5.2 5.5 5.7 5.6 5.7 5.8 5.9 5.6 5.7 5.6 5.6 5.2 5.1 5.2 5.1 5.2 5.3 5.3 5.3 5.2
6.0 5.6 5.6 5.4 5.5 5.3 5.1 5.4 6.0 5.8 5.7 5.7 5.6 5.5 5.4 5.2 5.1 5.2 5.2 5.2 5.2 5.0
5.8 5.6 5.7 5.7 5.8 5.5 5.7 6.0 6.1 6.0 5.6 5.4 5.3 5.1 5.0 5.1 5.2 5.2 5.2 5.0 4.9 4.7
6.2 6.1 6.0 6.1 6.0 5.8 5.9 5.8 5.7 5.5 5.5 5.4 5.3 5.2 5.2 5.2 5.2 5.2 4.9 4.8 4.7 4.5
6.2 6.0 5.9 6.0 5.8 5.6 5.6 5.6 5.4 5.3 5.2 5.1 5.2 5.1 5.2 5.2 5.0 4.9 4.7 4.6 4.6 4.7
6.2 6.1 6.0 5.9 5.6 5.5 5.4 5.3 5.3 5.3 5.2 5.2 5.1 5.1 5.1 4.9 4.7 4.5 4.6 4.7 4.7 4.5
6.2 6.1 5.9 5.6 5.6 5.5 5.2 5.1 5.0 5.0 5.0 5.0 5.0 4.9 4.7 4.7 4.5 4.6 4.6 4.4 4.3 4.4
5.9 5.8 5.6 5.4 5.2 5.0 5.0 5.0 5.0 4.9 4.8 4.8 4.7 4.7 4.6 4.5 4.4 4.3 4.2 4.3 4.4 4.5
5.6 5.4 5.2 5.1 5.0 5.0 4.9 4.9 4.8 4.8 4.7 4.6 4.6 4.6 4.4 4.3 4.2 4.2 4.3 4.3 4.3 4.5
5.4 5.3 5.3 5.1 4.9 4.8 4.7 4.5 4.5 4.5 4.4 4.3 4.2 4.1 4.0 4.0 4.0 4.1 4.2 4.3 4.7 5.2
5.0 4.8 4.7 4.7 4.5 4.5 4.5 4.5 4.3 4.2 4.1 4.0 4.0 3.9 4.0 3.9 3.8 4.0 4.2 4.8 5.4 5.8
4.8 4.7 4.6 4.6 4.7 4.7 4.5 4.3 4.1 4.0 3.9 4.0 4.0 3.9 3.7 3.8 3.9 4.2 4.7 5.2 5.7 6.2
Wind_Speed
6 2 4 6 4 5 3 4 6 5 4 4 4 3 4 2 2 2 3 3 2 1
6 5 2 3 3 3 4 4 5 7 4 4 4 4 4 2 4 3 3 3 2 1
7 7 9 6 5 5 5 5 6 4 4 5 4 4 3 2 2 2 2 2 0 2
9 8 6 5 5 6 6 6 5 6 5 5 4 4 3 3 2 2 3 2 2 4
6 6 6 7 7 7 6 5 6 6 6 5 4 3 3 3 1 2 2 3 2 3
7 7 7 7 6 6 6 6 5 5 4 4 4 4 3 3 3 3 4 3 3 4
7 7 7 6 7 7 6 6 6 5 5 4 4 4 3 3 3 3 4 4 3 3
6 7 6 6 6 6 5 4 5 5 4 4 4 3 4 4 4 4 4 3 4 5
6 6 6 6 6 6 5 5 5 4 4 5 3 5 5 3 3 4 4 4 5 5
6 6 6 6 6 6 6 5 5 5 5 5 6 9 7 6 4 4 5 4 5 5
6 6 6 6 6 5 5 6 5 5 5 5 4 9 7 7 4 5 6 6 7 6
6 6 6 6 6 4 4 4 4 3 4 4 4 8 8 6 4 6 7 6 7 7
6 6 5 6 6 4 3 3 3 3 3 5 5 6 10 8 3 5 4 6 6 10
5 5 3 4 3 3 3 1 1 2 4 5 6 6 10 11 4 4 4 4 4 4
Wind_Direction
182 162 216 175 180 214 192 210 195 166 167 143 145 191 206 191 216 236 212 222 238 261
208 165 11 320 185 199 187 152 148 158 163 176 186 191 205 198 222 195 233 230 217 233
194 178 200 188 189 188 175 164 150 161 166 169 174 197 205 245 241 196 271 207 161 270
189 177 162 177 181 184 172 160 163 172 181 182 187 197 207 235 236 198 257 287 204 256
164 154 158 171 183 170 168 168 177 173 188 186 181 198 191 241 252 233 276 275 273 268
169 172 175 176 168 166 178 176 176 169 178 186 190 187 205 212 230 239 240 241 240 252
159 165 180 171 164 174 177 167 170 175 190 183 169 191 219 219 232 258 247 230 213 240
169 167 162 148 155 158 158 164 169 172 170 160 188 204 212 227 223 237 261 272 238 226
141 138 140 147 156 153 163 174 162 164 180 185 201 187 192 215 254 277 247 241 256 248
147 150 158 159 156 168 177 180 182 189 192 200 218 196 200 218 231 257 264 249 255 257
164 169 168 165 178 184 183 190 189 201 205 202 225 185 201 223 229 260 261 248 242 243
173 177 173 178 185 190 175 179 190 187 210 214 247 211 206 219 232 249 252 251 245 239
173 175 182 181 188 187 159 181 190 203 208 234 243 253 210 211 228 257 264 272 268 262
144 153 162 161 141 134 142 153 212 234 253 241 224 236 239 225 223 254 273 269 272 268